Year,Month,Day,Hour,Minute,Value (Times are PST for barometer in hPa)
2010,08,24,00,00,1025.78
2010,08,24,00,01,1025.80
2010,08,24,00,02,1025.77
2010,08,24,00,03,1025.77
2010,08,24,00,04,1025.76
2010,08,24,00,05,1025.74
2010,08,24,00,06,1025.74
2010,08,24,00,07,1025.74
2010,08,24,00,08,1025.74
2010,08,24,00,09,1025.73
2010,08,24,00,10,1025.71
2010,08,24,00,11,1025.73
2010,08,24,00,12,1025.71
2010,08,24,00,13,1025.74
2010,08,24,00,14,1025.74
2010,08,24,00,15,1025.74
2010,08,24,00,16,1025.75
2010,08,24,00,17,1025.77
2010,08,24,00,18,1025.78
2010,08,24,00,19,1025.80
2010,08,24,00,20,1025.77
2010,08,24,00,21,1025.78
2010,08,24,00,22,1025.80
2010,08,24,00,23,1025.76
2010,08,24,00,24,1025.74
2010,08,24,00,25,1025.75
2010,08,24,00,26,1025.77
2010,08,24,00,27,1025.77
2010,08,24,00,28,1025.76
2010,08,24,00,29,1025.74
2010,08,24,00,30,1025.75
2010,08,24,00,31,1025.77
2010,08,24,00,32,1025.76
2010,08,24,00,33,1025.74
2010,08,24,00,34,1025.74
2010,08,24,00,35,1025.74
2010,08,24,00,36,1025.74
2010,08,24,00,37,1025.74
2010,08,24,00,38,1025.73
2010,08,24,00,39,1025.69
2010,08,24,00,40,1025.67
2010,08,24,00,41,1025.67
2010,08,24,00,42,1025.67
2010,08,24,00,43,1025.68
2010,08,24,00,44,1025.73
2010,08,24,00,45,1025.67
2010,08,24,00,46,1025.67
2010,08,24,00,47,1025.68
2010,08,24,00,48,1025.69
2010,08,24,00,49,1025.65
2010,08,24,00,50,1025.69
2010,08,24,00,51,1025.68
2010,08,24,00,52,1025.70
2010,08,24,00,53,1025.70
2010,08,24,00,54,1025.70
2010,08,24,00,55,1025.71
2010,08,24,00,56,1025.74
2010,08,24,00,57,1025.72
2010,08,24,00,58,1025.68
2010,08,24,00,59,1025.73
2010,08,24,01,00,1025.70
2010,08,24,01,01,1025.71
2010,08,24,01,02,1025.73
2010,08,24,01,03,1025.68
2010,08,24,01,04,1025.70
2010,08,24,01,05,1025.69
2010,08,24,01,06,1025.67
2010,08,24,01,07,1025.67
2010,08,24,01,08,1025.67
2010,08,24,01,09,1025.68
2010,08,24,01,10,1025.69
2010,08,24,01,11,1025.67
2010,08,24,01,12,1025.67
2010,08,24,01,13,1025.67
2010,08,24,01,14,1025.67
2010,08,24,01,15,1025.66
2010,08,24,01,16,1025.64
2010,08,24,01,17,1025.64
2010,08,24,01,18,1025.64
2010,08,24,01,19,1025.64
2010,08,24,01,20,1025.64
2010,08,24,01,21,1025.65
2010,08,24,01,22,1025.66
2010,08,24,01,23,1025.64
2010,08,24,01,24,1025.64
2010,08,24,01,25,1025.64
2010,08,24,01,26,1025.64
2010,08,24,01,27,1025.63
2010,08,24,01,28,1025.61
2010,08,24,01,29,1025.63
2010,08,24,01,30,1025.60
2010,08,24,01,31,1025.59
2010,08,24,01,32,1025.56
2010,08,24,01,33,1025.54
2010,08,24,01,34,1025.59
2010,08,24,01,35,1025.56
2010,08,24,01,36,1025.54
2010,08,24,01,37,1025.57
2010,08,24,01,38,1025.57
2010,08,24,01,39,1025.56
2010,08,24,01,40,1025.52
2010,08,24,01,41,1025.51
2010,08,24,01,42,1025.52
2010,08,24,01,43,1025.49
2010,08,24,01,44,1025.46
2010,08,24,01,45,1025.43
2010,08,24,01,46,1025.43
2010,08,24,01,47,1025.42
2010,08,24,01,48,1025.39
2010,08,24,01,49,1025.38
2010,08,24,01,50,1025.40
2010,08,24,01,51,1025.38
2010,08,24,01,52,1025.39
2010,08,24,01,53,1025.37
2010,08,24,01,54,1025.37
2010,08,24,01,55,1025.36
2010,08,24,01,56,1025.33
2010,08,24,01,57,1025.34
2010,08,24,01,58,1025.36
2010,08,24,01,59,1025.34
2010,08,24,02,00,1025.36
2010,08,24,02,01,1025.33
2010,08,24,02,02,1025.33
2010,08,24,02,03,1025.33
2010,08,24,02,04,1025.33
2010,08,24,02,05,1025.33
2010,08,24,02,06,1025.33
2010,08,24,02,07,1025.33
2010,08,24,02,08,1025.33
2010,08,24,02,09,1025.33
2010,08,24,02,10,1025.31
2010,08,24,02,11,1025.33
2010,08,24,02,12,1025.30
2010,08,24,02,13,1025.29
2010,08,24,02,14,1025.26
2010,08,24,02,15,1025.27
2010,08,24,02,16,1025.29
2010,08,24,02,17,1025.27
2010,08,24,02,18,1025.30
2010,08,24,02,19,1025.30
2010,08,24,02,20,1025.30
2010,08,24,02,21,1025.30
2010,08,24,02,22,1025.29
2010,08,24,02,23,1025.27
2010,08,24,02,24,1025.30
2010,08,24,02,25,1025.30
2010,08,24,02,26,1025.29
2010,08,24,02,27,1025.27
2010,08,24,02,28,1025.32
2010,08,24,02,29,1025.31
2010,08,24,02,30,1025.33
2010,08,24,02,31,1025.32
2010,08,24,02,32,1025.30
2010,08,24,02,33,1025.32
2010,08,24,02,34,1025.31
2010,08,24,02,35,1025.32
2010,08,24,02,36,1025.30
2010,08,24,02,37,1025.29
2010,08,24,02,38,1025.23
2010,08,24,02,39,1025.23
2010,08,24,02,40,1025.23
2010,08,24,02,41,1025.22
2010,08,24,02,42,1025.20
2010,08,24,02,43,1025.23
2010,08,24,02,44,1025.23
2010,08,24,02,45,1025.23
2010,08,24,02,46,1025.23
2010,08,24,02,47,1025.22
2010,08,24,02,48,1025.20
2010,08,24,02,49,1025.21
2010,08,24,02,50,1025.25
2010,08,24,02,51,1025.21
2010,08,24,02,52,1025.23
2010,08,24,02,53,1025.23
2010,08,24,02,54,1025.21
2010,08,24,02,55,1025.22
2010,08,24,02,56,1025.19
2010,08,24,02,57,1025.16
2010,08,24,02,58,1025.16
2010,08,24,02,59,1025.17
2010,08,24,03,00,1025.19
2010,08,24,03,01,1025.17
2010,08,24,03,02,1025.19
2010,08,24,03,03,1025.13
2010,08,24,03,06,1025.13
2010,08,24,03,07,1025.06
2010,08,24,03,08,1025.06
2010,08,24,03,09,1025.06
2010,08,24,03,10,1025.05
2010,08,24,03,11,1025.02
2010,08,24,03,12,1024.99
2010,08,24,03,13,1025.00
2010,08,24,03,14,1025.02
2010,08,24,03,15,1024.99
2010,08,24,03,16,1024.98
2010,08,24,03,17,1024.97
2010,08,24,03,18,1024.98
2010,08,24,03,19,1024.95
2010,08,24,03,20,1024.92
2010,08,24,03,21,1024.92
2010,08,24,03,22,1024.92
2010,08,24,03,23,1024.91
2010,08,24,03,24,1024.88
2010,08,24,03,25,1024.86
2010,08,24,03,26,1024.86
2010,08,24,03,27,1024.85
2010,08,24,03,28,1024.82
2010,08,24,03,29,1024.83
2010,08,24,03,30,1024.85
2010,08,24,03,31,1024.83
2010,08,24,03,32,1024.86
2010,08,24,03,33,1024.86
2010,08,24,03,34,1024.88
2010,08,24,03,35,1024.91
2010,08,24,03,36,1024.90
2010,08,24,03,37,1024.91
2010,08,24,03,38,1024.89
2010,08,24,03,39,1024.90
2010,08,24,03,40,1024.91
2010,08,24,03,41,1024.90
2010,08,24,03,42,1024.92
2010,08,24,03,43,1024.91
2010,08,24,03,44,1024.90
2010,08,24,03,45,1024.91
2010,08,24,03,46,1024.89
2010,08,24,03,47,1024.90
2010,08,24,03,48,1024.92
2010,08,24,03,49,1024.91
2010,08,24,03,50,1024.89
2010,08,24,03,51,1024.89
2010,08,24,03,52,1024.89
2010,08,24,03,53,1024.88
2010,08,24,03,54,1024.86
2010,08,24,03,55,1024.86
2010,08,24,03,56,1024.86
2010,08,24,03,57,1024.86
2010,08,24,03,58,1024.85
2010,08,24,03,59,1024.83
2010,08,24,04,00,1024.85
2010,08,24,04,01,1024.83
2010,08,24,04,02,1024.85
2010,08,24,04,03,1024.81
2010,08,24,04,04,1024.81
2010,08,24,04,05,1024.87
2010,08,24,04,06,1024.89
2010,08,24,04,07,1024.89
2010,08,24,04,08,1024.88
2010,08,24,04,09,1024.85
2010,08,24,04,10,1024.83
2010,08,24,04,11,1024.85
2010,08,24,04,12,1024.83
2010,08,24,04,13,1024.86
2010,08,24,04,14,1024.87
2010,08,24,04,15,1024.88
2010,08,24,04,16,1024.87
2010,08,24,04,17,1024.88
2010,08,24,04,18,1024.86
2010,08,24,04,19,1024.86
2010,08,24,04,20,1024.85
2010,08,24,04,21,1024.83
2010,08,24,04,22,1024.85
2010,08,24,04,23,1024.83
2010,08,24,04,24,1024.85
2010,08,24,04,25,1024.82
2010,08,24,04,26,1024.82
2010,08,24,04,27,1024.82
2010,08,24,04,28,1024.80
2010,08,24,04,29,1024.77
2010,08,24,04,30,1024.78
2010,08,24,04,31,1024.76
2010,08,24,04,32,1024.76
2010,08,24,04,33,1024.75
2010,08,24,04,34,1024.71
2010,08,24,04,35,1024.69
2010,08,24,04,36,1024.69
2010,08,24,04,37,1024.69
2010,08,24,04,38,1024.70
2010,08,24,04,39,1024.72
2010,08,24,04,40,1024.72
2010,08,24,04,41,1024.73
2010,08,24,04,42,1024.74
2010,08,24,04,43,1024.70
2010,08,24,04,44,1024.71
2010,08,24,04,45,1024.70
2010,08,24,04,46,1024.71
2010,08,24,04,47,1024.70
2010,08,24,04,48,1024.72
2010,08,24,04,49,1024.71
2010,08,24,04,50,1024.69
2010,08,24,04,51,1024.68
2010,08,24,04,52,1024.64
2010,08,24,04,53,1024.62
2010,08,24,04,54,1024.62
2010,08,24,04,55,1024.61
2010,08,24,04,56,1024.59
2010,08,24,04,57,1024.58
2010,08,24,04,58,1024.55
2010,08,24,04,59,1024.55
2010,08,24,05,00,1024.56
2010,08,24,05,01,1024.59
2010,08,24,05,02,1024.58
2010,08,24,05,03,1024.55
2010,08,24,05,04,1024.55
2010,08,24,05,05,1024.56
2010,08,24,05,06,1024.60
2010,08,24,05,07,1024.61
2010,08,24,05,08,1024.60
2010,08,24,05,09,1024.62
2010,08,24,05,10,1024.60
2010,08,24,05,11,1024.56
2010,08,24,05,12,1024.59
2010,08,24,05,13,1024.60
2010,08,24,05,14,1024.61
2010,08,24,05,15,1024.59
2010,08,24,05,16,1024.60
2010,08,24,05,17,1024.62
2010,08,24,05,18,1024.61
2010,08,24,05,19,1024.59
2010,08,24,05,20,1024.59
2010,08,24,05,21,1024.60
2010,08,24,05,22,1024.62
2010,08,24,05,23,1024.62
2010,08,24,05,24,1024.62
2010,08,24,05,25,1024.61
2010,08,24,05,26,1024.59
2010,08,24,05,27,1024.59
2010,08,24,05,28,1024.58
2010,08,24,05,29,1024.54
2010,08,24,05,30,1024.52
2010,08,24,05,31,1024.52
2010,08,24,05,32,1024.51
2010,08,24,05,33,1024.48
2010,08,24,05,34,1024.48
2010,08,24,05,35,1024.48
2010,08,24,05,36,1024.48
2010,08,24,05,37,1024.48
2010,08,24,05,38,1024.48
2010,08,24,05,39,1024.47
2010,08,24,05,40,1024.46
2010,08,24,05,41,1024.47
2010,08,24,05,42,1024.45
2010,08,24,05,43,1024.45
2010,08,24,05,44,1024.45
2010,08,24,05,45,1024.43
2010,08,24,05,46,1024.38
2010,08,24,05,47,1024.38
2010,08,24,05,48,1024.39
2010,08,24,05,49,1024.41
2010,08,24,05,50,1024.37
2010,08,24,05,51,1024.36
2010,08,24,05,52,1024.37
2010,08,24,05,53,1024.35
2010,08,24,05,54,1024.35
2010,08,24,05,55,1024.35
2010,08,24,05,56,1024.36
2010,08,24,05,57,1024.37
2010,08,24,05,58,1024.35
2010,08,24,05,59,1024.36
2010,08,24,06,00,1024.36
2010,08,24,06,01,1024.32
2010,08,24,06,02,1024.32
2010,08,24,06,03,1024.33
2010,08,24,06,04,1024.34
2010,08,24,06,05,1024.32
2010,08,24,06,06,1024.33
2010,08,24,06,07,1024.35
2010,08,24,06,08,1024.34
2010,08,24,06,09,1024.31
2010,08,24,06,10,1024.29
2010,08,24,06,11,1024.33
2010,08,24,06,12,1024.34
2010,08,24,06,13,1024.32
2010,08,24,06,14,1024.31
2010,08,24,06,15,1024.28
2010,08,24,06,16,1024.30
2010,08,24,06,17,1024.34
2010,08,24,06,18,1024.31
2010,08,24,06,19,1024.30
2010,08,24,06,20,1024.34
2010,08,24,06,21,1024.31
2010,08,24,06,22,1024.28
2010,08,24,06,23,1024.29
2010,08,24,06,24,1024.32
2010,08,24,06,25,1024.32
2010,08,24,06,26,1024.33
2010,08,24,06,27,1024.33
2010,08,24,06,28,1024.30
2010,08,24,06,29,1024.34
2010,08,24,06,30,1024.32
2010,08,24,06,31,1024.32
2010,08,24,06,32,1024.33
2010,08,24,06,33,1024.34
2010,08,24,06,34,1024.32
2010,08,24,06,35,1024.31
2010,08,24,06,36,1024.29
2010,08,24,06,37,1024.31
2010,08,24,06,38,1024.28
2010,08,24,06,39,1024.28
2010,08,24,06,40,1024.29
2010,08,24,06,41,1024.32
2010,08,24,06,42,1024.33
2010,08,24,06,43,1024.34
2010,08,24,06,44,1024.32
2010,08,24,06,45,1024.33
2010,08,24,06,46,1024.34
2010,08,24,06,47,1024.33
2010,08,24,06,48,1024.35
2010,08,24,06,49,1024.35
2010,08,24,06,50,1024.35
2010,08,24,06,51,1024.35
2010,08,24,06,52,1024.35
2010,08,24,06,53,1024.34
2010,08,24,06,54,1024.31
2010,08,24,06,55,1024.29
2010,08,24,06,56,1024.31
2010,08,24,06,57,1024.27
2010,08,24,06,58,1024.24
2010,08,24,06,59,1024.22
2010,08,24,07,00,1024.24
2010,08,24,07,01,1024.22
2010,08,24,07,02,1024.24
2010,08,24,07,03,1024.21
2010,08,24,07,04,1024.20
2010,08,24,07,05,1024.18
2010,08,24,07,06,1024.18
2010,08,24,07,07,1024.18
2010,08,24,07,08,1024.18
2010,08,24,07,09,1024.16
2010,08,24,07,10,1024.11
2010,08,24,07,11,1024.11
2010,08,24,07,12,1024.11
2010,08,24,07,13,1024.11
2010,08,24,07,14,1024.11
2010,08,24,07,15,1024.11
2010,08,24,07,16,1024.10
2010,08,24,07,17,1024.08
2010,08,24,07,18,1024.07
2010,08,24,07,19,1024.06
2010,08,24,07,20,1024.11
2010,08,24,07,21,1024.10
2010,08,24,07,22,1024.09
2010,08,24,07,23,1024.10
2010,08,24,07,24,1024.08
2010,08,24,07,25,1024.07
2010,08,24,07,26,1024.04
2010,08,24,07,27,1024.05
2010,08,24,07,28,1024.07
2010,08,24,07,29,1024.03
2010,08,24,07,30,1024.02
2010,08,24,07,31,1024.06
2010,08,24,07,32,1024.11
2010,08,24,07,33,1024.10
2010,08,24,07,34,1024.09
2010,08,24,07,35,1024.12
2010,08,24,07,36,1024.15
2010,08,24,07,37,1024.15
2010,08,24,07,38,1024.15
2010,08,24,07,39,1024.14
2010,08,24,07,40,1024.10
2010,08,24,07,41,1024.10
2010,08,24,07,42,1024.15
2010,08,24,07,43,1024.15
2010,08,24,07,44,1024.15
2010,08,24,07,45,1024.15
2010,08,24,07,46,1024.15
2010,08,24,07,47,1024.16
2010,08,24,07,48,1024.17
2010,08,24,07,49,1024.14
2010,08,24,07,50,1024.11
2010,08,24,07,51,1024.10
2010,08,24,07,52,1024.08
2010,08,24,07,53,1024.06
2010,08,24,07,54,1024.02
2010,08,24,07,55,1024.04
2010,08,24,07,56,1024.04
2010,08,24,07,57,1024.03
2010,08,24,07,58,1024.03
2010,08,24,07,59,1024.07
2010,08,24,08,00,1024.04
2010,08,24,08,01,1024.03
2010,08,24,08,02,1024.01
2010,08,24,08,03,1024.01
2010,08,24,08,04,1023.99
2010,08,24,08,05,1023.95
2010,08,24,08,06,1023.98
2010,08,24,08,07,1023.97
2010,08,24,08,08,1023.95
2010,08,24,08,09,1023.98
2010,08,24,08,10,1023.98
2010,08,24,08,11,1023.97
2010,08,24,08,12,1023.95
2010,08,24,08,13,1023.98
2010,08,24,08,14,1023.97
2010,08,24,08,15,1023.93
2010,08,24,08,16,1023.91
2010,08,24,08,17,1023.91
2010,08,24,08,18,1023.92
2010,08,24,08,19,1023.94
2010,08,24,08,20,1023.93
2010,08,24,08,21,1023.92
2010,08,24,08,22,1023.94
2010,08,24,08,23,1023.92
2010,08,24,08,24,1023.88
2010,08,24,08,25,1023.87
2010,08,24,08,26,1023.84
2010,08,24,08,27,1023.83
2010,08,24,08,28,1023.82
2010,08,24,08,29,1023.84
2010,08,24,08,30,1023.83
2010,08,24,08,31,1023.81
2010,08,24,08,32,1023.81
2010,08,24,08,33,1023.81
2010,08,24,08,34,1023.82
2010,08,24,08,35,1023.83
2010,08,24,08,36,1023.81
2010,08,24,08,37,1023.80
2010,08,24,08,38,1023.77
2010,08,24,08,39,1023.78
2010,08,24,08,40,1023.82
2010,08,24,08,41,1023.82
2010,08,24,08,42,1023.76
2010,08,24,08,43,1023.74
2010,08,24,08,44,1023.74
2010,08,24,08,45,1023.72
2010,08,24,08,46,1023.67
2010,08,24,08,47,1023.68
2010,08,24,08,48,1023.70
2010,08,24,08,49,1023.67
2010,08,24,08,50,1023.67
2010,08,24,08,51,1023.66
2010,08,24,08,52,1023.64
2010,08,24,08,53,1023.65
2010,08,24,08,54,1023.65
2010,08,24,08,55,1023.60
2010,08,24,08,56,1023.59
2010,08,24,08,57,1023.57
2010,08,24,08,58,1023.56
2010,08,24,08,59,1023.55
2010,08,24,09,00,1023.56
2010,08,24,09,01,1023.52
2010,08,24,09,02,1023.48
2010,08,24,09,03,1023.49
2010,08,24,09,04,1023.46
2010,08,24,09,05,1023.43
2010,08,24,09,06,1023.43
2010,08,24,09,07,1023.44
2010,08,24,09,08,1023.46
2010,08,24,09,09,1023.42
2010,08,24,09,10,1023.39
2010,08,24,09,11,1023.36
2010,08,24,09,12,1023.33
2010,08,24,09,13,1023.33
2010,08,24,09,14,1023.33
2010,08,24,09,15,1023.33
2010,08,24,09,16,1023.33
2010,08,24,09,17,1023.33
2010,08,24,09,18,1023.32
2010,08,24,09,19,1023.30
2010,08,24,09,20,1023.29
2010,08,24,09,21,1023.27
2010,08,24,09,22,1023.26
2010,08,24,09,23,1023.21
2010,08,24,09,24,1023.16
2010,08,24,09,25,1023.16
2010,08,24,09,26,1023.15
2010,08,24,09,27,1023.13
2010,08,24,09,28,1023.13
2010,08,24,09,29,1023.12
2010,08,24,09,30,1023.11
2010,08,24,09,31,1023.10
2010,08,24,09,32,1023.03
2010,08,24,09,33,1023.03
2010,08,24,09,34,1023.02
2010,08,24,09,35,1022.99
2010,08,24,09,36,1022.99
2010,08,24,09,37,1022.97
2010,08,24,09,38,1022.94
2010,08,24,09,39,1022.97
2010,08,24,09,40,1022.93
2010,08,24,09,41,1022.92
2010,08,24,09,42,1022.89
2010,08,24,09,43,1022.88
2010,08,24,09,44,1022.86
2010,08,24,09,45,1022.86
2010,08,24,09,46,1022.86
2010,08,24,09,47,1022.85
2010,08,24,09,48,1022.83
2010,08,24,09,49,1022.82
2010,08,24,09,50,1022.79
2010,08,24,09,51,1022.79
2010,08,24,09,52,1022.79
2010,08,24,09,53,1022.78
2010,08,24,09,54,1022.75
2010,08,24,09,55,1022.72
2010,08,24,09,56,1022.73
2010,08,24,09,57,1022.75
2010,08,24,09,58,1022.72
2010,08,24,09,59,1022.71
2010,08,24,10,00,1022.68
2010,08,24,10,01,1022.66
2010,08,24,10,02,1022.65
2010,08,24,10,03,1022.61
2010,08,24,10,04,1022.60
2010,08,24,10,05,1022.59
2010,08,24,10,06,1022.52
2010,08,24,10,07,1022.51
2010,08,24,10,08,1022.48
2010,08,24,10,09,1022.46
2010,08,24,10,10,1022.47
2010,08,24,10,11,1022.41
2010,08,24,10,12,1022.37
2010,08,24,10,13,1022.33
2010,08,24,10,14,1022.34
2010,08,24,10,15,1022.33
2010,08,24,10,16,1022.34
2010,08,24,10,17,1022.32
2010,08,24,10,18,1022.32
2010,08,24,10,19,1022.31
2010,08,24,10,20,1022.28
2010,08,24,10,21,1022.28
2010,08,24,10,22,1022.27
2010,08,24,10,23,1022.24
2010,08,24,10,24,1022.22
2010,08,24,10,25,1022.22
2010,08,24,10,26,1022.21
2010,08,24,10,27,1022.17
2010,08,24,10,28,1022.14
2010,08,24,10,29,1022.12
2010,08,24,10,30,1022.13
2010,08,24,10,31,1022.07
2010,08,24,10,32,1022.06
2010,08,24,10,33,1022.06
2010,08,24,10,34,1022.01
2010,08,24,10,35,1022.01
2010,08,24,10,36,1021.99
2010,08,24,10,37,1021.93
2010,08,24,10,38,1021.91
2010,08,24,10,39,1021.91
2010,08,24,10,40,1021.89
2010,08,24,10,41,1021.84
2010,08,24,10,42,1021.83
2010,08,24,10,43,1021.82
2010,08,24,10,44,1021.83
2010,08,24,10,45,1021.82
2010,08,24,10,46,1021.83
2010,08,24,10,47,1021.79
2010,08,24,10,48,1021.75
2010,08,24,10,49,1021.78
2010,08,24,10,50,1021.78
2010,08,24,10,51,1021.78
2010,08,24,10,52,1021.77
2010,08,24,10,53,1021.73
2010,08,24,10,54,1021.73
2010,08,24,10,55,1021.77
2010,08,24,10,56,1021.73
2010,08,24,10,57,1021.71
2010,08,24,10,58,1021.70
2010,08,24,10,59,1021.68
2010,08,24,11,00,1021.69
2010,08,24,11,01,1021.63
2010,08,24,11,02,1021.61
2010,08,24,11,03,1021.60
2010,08,24,11,04,1021.57
2010,08,24,11,05,1021.57
2010,08,24,11,06,1021.57
2010,08,24,11,07,1021.56
2010,08,24,11,08,1021.53
2010,08,24,11,09,1021.50
2010,08,24,11,10,1021.50
2010,08,24,11,11,1021.48
2010,08,24,11,12,1021.44
2010,08,24,11,13,1021.43
2010,08,24,11,14,1021.39
2010,08,24,11,15,1021.37
2010,08,24,11,16,1021.36
2010,08,24,11,17,1021.34
2010,08,24,11,18,1021.34
2010,08,24,11,19,1021.33
2010,08,24,11,20,1021.29
2010,08,24,11,21,1021.26
2010,08,24,11,22,1021.24
2010,08,24,11,23,1021.25
2010,08,24,11,24,1021.20
2010,08,24,11,25,1021.20
2010,08,24,11,26,1021.21
2010,08,24,11,27,1021.23
2010,08,24,11,28,1021.22
2010,08,24,11,29,1021.21
2010,08,24,11,30,1021.21
2010,08,24,11,31,1021.17
2010,08,24,11,32,1021.17
2010,08,24,11,33,1021.16
2010,08,24,11,34,1021.12
2010,08,24,11,35,1021.10
2010,08,24,11,36,1021.09
2010,08,24,11,37,1021.05
2010,08,24,11,38,1021.03
2010,08,24,11,39,1021.02
2010,08,24,11,40,1021.00
2010,08,24,11,41,1020.99
2010,08,24,11,42,1020.95
2010,08,24,11,43,1020.93
2010,08,24,11,44,1020.93
2010,08,24,11,45,1020.92
2010,08,24,11,46,1020.89
2010,08,24,11,47,1020.88
2010,08,24,11,48,1020.85
2010,08,24,11,49,1020.82
2010,08,24,11,50,1020.79
2010,08,24,11,51,1020.79
2010,08,24,11,52,1020.78
2010,08,24,11,53,1020.72
2010,08,24,11,54,1020.70
2010,08,24,11,55,1020.71
2010,08,24,11,56,1020.67
2010,08,24,11,57,1020.67
2010,08,24,11,58,1020.63
2010,08,24,11,59,1020.66
2010,08,24,12,00,1020.64
2010,08,24,12,01,1020.58
2010,08,24,12,02,1020.56
2010,08,24,12,03,1020.56
2010,08,24,12,04,1020.54
2010,08,24,12,05,1020.49
2010,08,24,12,06,1020.48
2010,08,24,12,07,1020.44
2010,08,24,12,08,1020.43
2010,08,24,12,09,1020.45
2010,08,24,12,10,1020.46
2010,08,24,12,11,1020.47
2010,08,24,12,12,1020.42
2010,08,24,12,13,1020.41
2010,08,24,12,14,1020.39
2010,08,24,12,15,1020.38
2010,08,24,12,16,1020.35
2010,08,24,12,17,1020.34
2010,08,24,12,18,1020.33
2010,08,24,12,19,1020.34
2010,08,24,12,20,1020.29
2010,08,24,12,21,1020.29
2010,08,24,12,22,1020.28
2010,08,24,12,23,1020.24
2010,08,24,12,24,1020.23
2010,08,24,12,25,1020.23
2010,08,24,12,26,1020.18
2010,08,24,12,27,1020.19
2010,08,24,12,28,1020.20
2010,08,24,12,29,1020.14
2010,08,24,12,30,1020.10
2010,08,24,12,31,1020.06
2010,08,24,12,32,1020.05
2010,08,24,12,33,1020.00
2010,08,24,12,34,1020.03
2010,08,24,12,35,1019.97
2010,08,24,12,36,1019.94
2010,08,24,12,37,1019.91
2010,08,24,12,38,1019.91
2010,08,24,12,39,1019.91
2010,08,24,12,40,1019.91
2010,08,24,12,41,1019.90
2010,08,24,12,42,1019.87
2010,08,24,12,43,1019.84
2010,08,24,12,44,1019.80
2010,08,24,12,45,1019.77
2010,08,24,12,46,1019.75
2010,08,24,12,47,1019.78
2010,08,24,12,48,1019.78
2010,08,24,12,49,1019.76
2010,08,24,12,50,1019.71
2010,08,24,12,51,1019.70
2010,08,24,12,52,1019.68
2010,08,24,12,53,1019.69
2010,08,24,12,54,1019.70
2010,08,24,12,55,1019.67
2010,08,24,12,56,1019.63
2010,08,24,12,57,1019.61
2010,08,24,12,58,1019.61
2010,08,24,12,59,1019.59
2010,08,24,13,00,1019.55
2010,08,24,13,01,1019.56
2010,08,24,13,02,1019.54
2010,08,24,13,03,1019.53
2010,08,24,13,04,1019.50
2010,08,24,13,05,1019.47
2010,08,24,13,06,1019.47
2010,08,24,13,07,1019.46
2010,08,24,13,08,1019.43
2010,08,24,13,09,1019.41
2010,08,24,13,10,1019.43
2010,08,24,13,11,1019.38
2010,08,24,13,12,1019.35
2010,08,24,13,13,1019.35
2010,08,24,13,14,1019.30
2010,08,24,13,15,1019.30
2010,08,24,13,16,1019.29
2010,08,24,13,17,1019.26
2010,08,24,13,18,1019.25
2010,08,24,13,19,1019.26
2010,08,24,13,20,1019.24
2010,08,24,13,21,1019.22
2010,08,24,13,22,1019.15
2010,08,24,13,23,1019.08
2010,08,24,13,24,1019.05
2010,08,24,13,25,1019.09
2010,08,24,13,26,1019.06
2010,08,24,13,27,1019.03
2010,08,24,13,28,1019.03
2010,08,24,13,29,1019.02
2010,08,24,13,30,1018.98
2010,08,24,13,31,1018.91
2010,08,24,13,32,1018.95
2010,08,24,13,33,1018.89
2010,08,24,13,34,1018.86
2010,08,24,13,35,1018.85
2010,08,24,13,36,1018.82
2010,08,24,13,37,1018.79
2010,08,24,13,38,1018.76
2010,08,24,13,39,1018.77
2010,08,24,13,40,1018.80
2010,08,24,13,41,1018.78
2010,08,24,13,42,1018.74
2010,08,24,13,43,1018.75
2010,08,24,13,44,1018.73
2010,08,24,13,45,1018.71
2010,08,24,13,46,1018.66
2010,08,24,13,47,1018.65
2010,08,24,13,48,1018.62
2010,08,24,13,49,1018.58
2010,08,24,13,50,1018.55
2010,08,24,13,51,1018.51
2010,08,24,13,52,1018.50
2010,08,24,13,53,1018.51
2010,08,24,13,54,1018.50
2010,08,24,13,55,1018.51
2010,08,24,13,56,1018.50
2010,08,24,13,57,1018.52
2010,08,24,13,58,1018.51
2010,08,24,13,59,1018.47
2010,08,24,14,00,1018.42
2010,08,24,14,01,1018.42
2010,08,24,14,02,1018.41
2010,08,24,14,03,1018.38
2010,08,24,14,04,1018.35
2010,08,24,14,05,1018.32
2010,08,24,14,06,1018.31
2010,08,24,14,07,1018.28
2010,08,24,14,08,1018.25
2010,08,24,14,09,1018.26
2010,08,24,14,10,1018.28
2010,08,24,14,11,1018.25
2010,08,24,14,12,1018.24
2010,08,24,14,13,1018.21
2010,08,24,14,14,1018.20
2010,08,24,14,15,1018.21
2010,08,24,14,16,1018.19
2010,08,24,14,17,1018.19
2010,08,24,14,18,1018.18
2010,08,24,14,19,1018.14
2010,08,24,14,20,1018.11
2010,08,24,14,21,1018.07
2010,08,24,14,22,1018.04
2010,08,24,14,23,1018.02
2010,08,24,14,24,1018.01
2010,08,24,14,25,1017.98
2010,08,24,14,26,1017.98
2010,08,24,14,27,1017.97
2010,08,24,14,28,1017.94
2010,08,24,14,29,1017.90
2010,08,24,14,30,1017.88
2010,08,24,14,31,1017.87
2010,08,24,14,32,1017.85
2010,08,24,14,33,1017.83
2010,08,24,14,34,1017.79
2010,08,24,14,35,1017.80
2010,08,24,14,36,1017.77
2010,08,24,14,37,1017.74
2010,08,24,14,38,1017.71
2010,08,24,14,39,1017.69
2010,08,24,14,40,1017.64
2010,08,24,14,41,1017.64
2010,08,24,14,42,1017.64
2010,08,24,14,43,1017.63
2010,08,24,14,44,1017.61
2010,08,24,14,45,1017.59
2010,08,24,14,46,1017.54
2010,08,24,14,47,1017.54
2010,08,24,14,48,1017.52
2010,08,24,14,49,1017.48
2010,08,24,14,50,1017.50
2010,08,24,14,51,1017.47
2010,08,24,14,52,1017.47
2010,08,24,14,53,1017.46
2010,08,24,14,54,1017.44
2010,08,24,14,55,1017.43
2010,08,24,14,56,1017.41
2010,08,24,14,57,1017.41
2010,08,24,14,58,1017.41
2010,08,24,14,59,1017.41
2010,08,24,15,00,1017.41
2010,08,24,15,01,1017.40
2010,08,24,15,02,1017.37
2010,08,24,15,03,1017.37
2010,08,24,15,04,1017.37
2010,08,24,15,05,1017.35
2010,08,24,15,06,1017.29
2010,08,24,15,07,1017.25
2010,08,24,15,08,1017.27
2010,08,24,15,09,1017.26
2010,08,24,15,10,1017.24
2010,08,24,15,11,1017.22
2010,08,24,15,12,1017.18
2010,08,24,15,13,1017.19
2010,08,24,15,14,1017.17
2010,08,24,15,15,1017.17
2010,08,24,15,16,1017.16
2010,08,24,15,17,1017.14
2010,08,24,15,18,1017.13
2010,08,24,15,19,1017.10
2010,08,24,15,20,1017.09
2010,08,24,15,21,1017.07
2010,08,24,15,22,1017.06
2010,08,24,15,23,1017.02
2010,08,24,15,24,1017.00
2010,08,24,15,25,1016.99
2010,08,24,15,26,1016.98
2010,08,24,15,27,1016.98
2010,08,24,15,28,1016.93
2010,08,24,15,29,1016.92
2010,08,24,15,30,1016.89
2010,08,24,15,31,1016.88
2010,08,24,15,32,1016.90
2010,08,24,15,33,1016.89
2010,08,24,15,34,1016.87
2010,08,24,15,35,1016.86
2010,08,24,15,36,1016.83
2010,08,24,15,37,1016.82
2010,08,24,15,38,1016.79
2010,08,24,15,39,1016.75
2010,08,24,15,40,1016.74
2010,08,24,15,41,1016.75
2010,08,24,15,42,1016.72
2010,08,24,15,43,1016.70
2010,08,24,15,44,1016.69
2010,08,24,15,45,1016.66
2010,08,24,15,46,1016.65
2010,08,24,15,47,1016.62
2010,08,24,15,48,1016.59
2010,08,24,15,49,1016.58
2010,08,24,15,50,1016.56
2010,08,24,15,51,1016.57
2010,08,24,15,52,1016.59
2010,08,24,15,53,1016.58
2010,08,24,15,54,1016.56
2010,08,24,15,55,1016.55
2010,08,24,15,56,1016.53
2010,08,24,15,57,1016.52
2010,08,24,15,58,1016.49